Regional Weather Roundup
Issued by NWS

Home | Current Version | Previous Version | Graphics & Text | Print | Product List | Glossary On
Versions: 1 2 3 4 5 6 7 8 9 10 11 12 13 14 15 16 17 18 19 20 21 22 23 24 25 26 27 28 29 30 31 32 33 34 35 36 37 38 39 40 41 42 43 44 45 46 47 48 49 50
000
ASUS43 KMKX 202211
RWRWI

WISCONSIN REGIONAL WEATHER ROUNDUP
NATIONAL WEATHER SERVICE MILWAUKEE/SULLIVAN WI
500 PM CDT SAT SEP 20 2014

NOTE: "FAIR" INDICATES FEW OR NO CLOUDS BELOW 12,000 FEET WITH NO
SIGNIFICANT WEATHER AND/OR OBSTRUCTIONS TO VISIBILITY.

WIZ001-002-006>008-014>016-023>028-202300-
NORTHWEST WISCONSIN

CITY           SKY/WX    TMP DP  RH WIND       PRES   REMARKS
SUPERIOR ARPT  MOSUNNY   67  52  58 W6        29.69S
ASHLAND        PTSUNNY   68  52  56 W5        29.71S
HAYWARD        MOSUNNY   68  51  54 SW10      29.73S
SIREN          MOSUNNY   68  54  60 NW6       29.74S
RICE LAKE      PTSUNNY   71  55  55 W9        29.75S
LADYSMITH      MOSUNNY   71  54  54 W12       29.74S
EAU CLAIRE     SUNNY     74  54  49 W12       29.73S
MENOMONIE      CLEAR     75  53  45 W10       29.73F
NEW RICHMOND   MOSUNNY   72  54  53 W6        29.74F
OSCEOLA        SUNNY     71  56  58 W6        29.76S
$$

WIZ003>005-009-010-017-018-202300-
NORTH CENTRAL WISCONSIN

CITY           SKY/WX    TMP DP  RH WIND       PRES   REMARKS
WOODRUFF       SUNNY     72  57  58 NW8       29.70S
RHINELANDER    MOSUNNY   71  53  52 W10       29.71R
EAGLE RIVER    MOSUNNY   68  52  56 NW8       29.69S
LAND O LAKES   MOSUNNY   65  54  68 N9        29.71S
PHILLIPS       MOSUNNY   68  52  56 NW8       29.71R
TOMAHAWK       MOSUNNY   71  53  53 W8        29.71S
MEDFORD        MOSUNNY   70  55  58 W14G21    29.73R
MERRILL        SUNNY     71  55  58 W10       29.70S
$$

WIZ029-030-035-036-043>047-202300-
CENTRAL WISCONSIN

CITY           SKY/WX    TMP DP  RH WIND       PRES   REMARKS
WAUSAU         SUNNY     73  55  53 W16G22    29.69S
MOSINEE        MOSUNNY   72  59  64 W13       29.73R
MARSHFIELD     SUNNY     72  56  57 W10       29.73S
STEVENS POINT  SUNNY     72  55  54 W9G16     29.72S
WAUPACA        MOSUNNY   78  58  50 W12       29.71R
WAUTOMA        MOSUNNY   77  62  59 W12G17    29.72S
WISC RAPIDS    SUNNY     75  56  51 NW12      29.74S
CAMP DOUGLAS   SUNNY     75  60  58 W14       29.74S
$$

WIZ011>013-019>022-031-037>040-048>050-202300-
NORTHEAST WISCONSIN

CITY           SKY/WX    TMP DP  RH WIND       PRES   REMARKS
ANTIGO         SUNNY     72  55  56 W9        29.70S
STURGEON BAY   PTSUNNY   72  63  73 SW15G22   29.67R
GREEN BAY      MOSUNNY   74  63  68 SW6       29.68S
MANITOWOC      MOSUNNY   73  65  75 W10       29.69F
APPLETON       PTSUNNY   72  61  68 SW12      29.71S
CLINTONVILLE   SUNNY     75  57  53 W13       29.69R
OSHKOSH        SUNNY     74  63  68 SW9       29.71F
$$

WIZ032>034-041-042-053>061-202300-
SOUTHWEST WISCONSIN

CITY           SKY/WX    TMP DP  RH WIND       PRES   REMARKS
LA CROSSE      MOSUNNY   78  57  48 W9        29.74S
SPARTA         MOSUNNY   75  56  50 W7        29.75S
VIROQUA        FAIR      74  57  54 W9        29.78S
BOSCOBEL       MOSUNNY   80  59  48 W10       29.75F HX  81
PRAIRIE DU CHI SUNNY     80  52  38 W10G18    29.76S HX  80
PLATTEVILLE    FAIR      77  61  58 W12G17    29.79F
$$

WIZ056-057-062-063-064-067-068-202300-
SOUTH CENTRAL WISCONSIN

CITY           SKY/WX    TMP DP  RH WIND       PRES   REMARKS
BARABOO/DELLS  SUNNY     76  58  55 W9        29.75S
LONE ROCK      SUNNY     80  63  55 W10       29.74F HX  81
WATERTOWN      PTSUNNY   74  59  59 W15       29.74S
MADISON        PTSUNNY   76  61  59 W7        29.74F
MIDDLETON      FAIR      77  59  54 W16       29.75F
MONROE         MOSUNNY   75  63  64 W17G26    29.78R
JANESVILLE     SUNNY     77  63  61 SW13G18   29.76F
$$

WIZ051-052-058>065-066-070>072-202300-
SOUTHEAST WISCONSIN

CITY           SKY/WX    TMP DP  RH WIND       PRES   REMARKS
MILWAUKEE      PTSUNNY   74  62  66 SW15G23   29.73F
WAUKESHA       PTSUNNY   72  63  73 SW10      29.75F
MILWAUKEE/TIMM NOT AVBL
RACINE         PTSUNNY   74  64  71 SW10      29.75F
BURLINGTON     PTSUNNY   73  64  73 SW9       29.75F
KENOSHA        MOSUNNY   72  65  78 SW12      29.76F
FOND DU LAC    SUNNY     73  62  68 SW10      29.73F
SHEBOYGAN      MOSUNNY   73  63  70 W16G23    29.72F
WEST BEND      MOSUNNY   73  59  60 W15G21    29.73F
JUNEAU         MOSUNNY   73  62  66 W13G18    29.75S
$$

LSZ147-162-202300-
LAKE SUPERIOR

STATION/POSITION TIME  TEMP    WIND        PRES    WAVE
                       AIR SEA DIR/SP/G            HT/PER
                 (UTC) (F)     (DEG/KT/KT) (MB)    (FT/S)
W MID LAKE BUOY  2150   52 47  250/ 10/ 12 1004.9S   2/ 4
DEVILS ISLAND    2200   57     250/ 11/ 13 1006.0R
PORT WING        2100   67     230/  9/ 12 1005.8F
SAXON HARBOR     2100   62     300/  4/  8 1006.4F
$$

LMZ867-665-643>646-202300-
LAKE MICHIGAN

STATION/POSITION TIME  TEMP    WIND        PRES    WAVE
                       AIR SEA DIR/SP/G            HT/PER
                 (UTC) (F)     (DEG/KT/KT) (MB)    (FT/S)
N MID LAKE BUOY  2150   61 58  230/ 16/ 19 1003.2R   5/ 6
NORTHPORT PIER   2100   73     240/  8/ 15 1003.4R
SISTER BAY       2112          260/ 18/ 24   N/A
KEWAUNEE LAKESHO 2100   73     250/  7/ 12 1004.1F
SHEBOYGAN LAKESH 2200   73 55  260/ 13/ 17 1005.9F
PORT WASHINGTON  2140   76     280/  9/ 16 1006.8F
ATWATER BUOY     2200   68     220/ 12/ 14 1007.7F
MILWAUKEE LAKESH 2100   71     230/ 10/ 13   N/A
S MID LAKE BUOY  2150   65 63  210/ 17/ 19 1007.8F   3/ 5
KENOSHA   LAKESH 2200   73     210/  7/  9 1007.1F
$$

TC  - TEMPERATURE IN CELSIUS
VSB - VISIBILITY IN STATUTE MILES
WCI - WIND CHILL INDEX
HX  - HEAT INDEX



USA.gov is the U.S. government's official web portal to all federal, state and local government web resources and services.